When you browse on this site, cookies collect data to enhance your experience and personalize the content and advertising you see.
Visit our Privacy Policy to learn more. By continuing to use the site, you agree to this use of cookies and data.
EN

Hourly Weather Bregenz

Today, 24 September, Thursday

Time Temperature Precipitation Wind Pressure Humidity
00:00 +8°C° 0 mm 2 mps 642 mmHg 87%
01:00 +8°C° 0 mm 2 mps 642 mmHg 86%
02:00 +8°C° 0 mm 2 mps 642 mmHg 86%
03:00 +8°C° 0 mm 2 mps 642 mmHg 85%
04:00 +8°C° 0 mm 2 mps 642 mmHg 84%
05:00 +8°C° 0 mm 2 mps 642 mmHg 84%
06:00 +10°C° 0 mm 1 mps 642 mmHg 84%
07:00 +10°C° 0 mm 1 mps 642 mmHg 84%
08:00 +11°C° 0 mm 1 mps 643 mmHg 79%
09:00 +13°C° 0 mm 1 mps 644 mmHg 74%
10:00 +14°C° 0 mm 1 mps 644 mmHg 69%
11:00 +15°C° 0.1 mm 1 mps 644 mmHg 68%
12:00 +15°C° 0.1 mm 1 mps 644 mmHg 67%
13:00 +16°C° 0.1 mm 1 mps 643 mmHg 66%
14:00 +15°C° 0.7 mm 1 mps 643 mmHg 74%
15:00 +14°C° 0.7 mm 1 mps 642 mmHg 82%
16:00 +13°C° 0.7 mm 1 mps 641 mmHg 90%
17:00 +12°C° 1 mm 1 mps 641 mmHg 91%
18:00 +11°C° 1 mm 1 mps 640 mmHg 92%
19:00 +10°C° 1 mm 1 mps 640 mmHg 93%
20:00 +10°C° 1.3 mm 1 mps 640 mmHg 94%
21:00 +10°C° 1.3 mm 1 mps 639 mmHg 95%
22:00 +10°C° 1.3 mm 1 mps 639 mmHg 97%
23:00 +9°C° 6.1 mm 1 mps 639 mmHg 97%

Tomorrow, 25 September, Friday

Time Temperature Precipitation Wind Pressure Humidity
00:00 +9°C° 6.1 mm 1 mps 638 mmHg 97%
01:00 +9°C° 6.1 mm 1 mps 637 mmHg 97%
02:00 +8°C° 3.5 mm 1 mps 637 mmHg 97%
03:00 +8°C° 3.5 mm 1 mps 637 mmHg 96%
04:00 +7°C° 3.5 mm 1 mps 636 mmHg 95%
05:00 +5°C° 2.1 mm 2 mps 636 mmHg 95%
06:00 +3°C° 2.1 mm 3 mps 636 mmHg 96%
07:00 +1°C° 2.1 mm 4 mps 635 mmHg 96%
08:00 +1°C° 1.8 mm 3 mps 635 mmHg 96%
09:00 +1°C° 1.8 mm 3 mps 635 mmHg 95%
10:00 +1°C° 1.8 mm 2 mps 636 mmHg 94%
11:00 +2°C° 0.4 mm 2 mps 636 mmHg 90%
12:00 +2°C° 0.4 mm 2 mps 635 mmHg 87%
13:00 +3°C° 0.4 mm 2 mps 635 mmHg 83%
14:00 +2°C° 1.2 mm 2 mps 635 mmHg 87%
15:00 +2°C° 1.2 mm 2 mps 635 mmHg 91%
16:00 +1°C° 1.2 mm 2 mps 635 mmHg 95%
17:00 +1°C° 0.4 mm 2 mps 635 mmHg 95%
18:00 +2°C° 0.4 mm 1 mps 635 mmHg 95%
19:00 +1°C° 0.4 mm 1 mps 635 mmHg 95%
20:00 -1°C° 0.5 mm 2 mps 635 mmHg 95%
21:00 +1°C° 0.5 mm 2 mps 635 mmHg 96%
22:00 0°C° 0.5 mm 3 mps 635 mmHg 96%
23:00 0°C° 0.7 mm 3 mps 635 mmHg 96%

Day after tomorrow, 26 September, Saturday

Time Temperature Precipitation Wind Pressure Humidity
00:00 -1°C° 0.7 mm 3 mps 635 mmHg 97%
01:00 -1°C° 0.7 mm 2 mps 635 mmHg 97%
02:00 -1°C° 0.8 mm 3 mps 635 mmHg 97%
03:00 -1°C° 0.8 mm 3 mps 635 mmHg 97%
04:00 0°C° 0.8 mm 3 mps 635 mmHg 97%
05:00 0°C° 1.7 mm 3 mps 635 mmHg 97%
06:00 -1°C° 1.7 mm 4 mps 636 mmHg 97%
07:00 -1°C° 1.7 mm 4 mps 636 mmHg 97%
08:00 -2°C° 2 mm 4 mps 636 mmHg 97%
09:00 -2°C° 2 mm 4 mps 636 mmHg 98%
10:00 -2°C° 2 mm 4 mps 637 mmHg 98%
11:00 -2°C° 2.1 mm 4 mps 637 mmHg 98%
12:00 -1°C° 2.1 mm 3 mps 637 mmHg 98%
13:00 -1°C° 2.1 mm 3 mps 638 mmHg 98%
14:00 -1°C° 1 mm 3 mps 638 mmHg 97%
15:00 -1°C° 1 mm 3 mps 638 mmHg 96%
16:00 -1°C° 1 mm 3 mps 638 mmHg 95%
17:00 -1°C° 0.2 mm 2 mps 639 mmHg 95%
18:00 -1°C° 0.2 mm 2 mps 639 mmHg 94%
19:00 0°C° 0.2 mm 1 mps 639 mmHg 94%
20:00 0°C° 0.3 mm 1 mps 639 mmHg 95%
21:00 -1°C° 0.3 mm 1 mps 639 mmHg 96%
22:00 -1°C° 0.3 mm 1 mps 639 mmHg 97%
23:00 -1°C° 0.4 mm 1 mps 638 mmHg 97%

27 September, Sunday

Time Temperature Precipitation Wind Pressure Humidity
00:00 -2°C° 0.4 mm 1 mps 638 mmHg 97%
01:00 -2°C° 0.4 mm 1 mps 638 mmHg 97%
02:00 -2°C° 0 mm 1 mps 638 mmHg 96%
03:00 -3°C° 0 mm 1 mps 637 mmHg 96%
04:00 -3°C° 0 mm 1 mps 637 mmHg 95%
05:00 -3°C° 0 mm 1 mps 637 mmHg 94%
06:00 -3°C° 0 mm 1 mps 638 mmHg 94%
07:00 -3°C° 0 mm 1 mps 638 mmHg 94%
08:00 -1°C° 0 mm 1 mps 638 mmHg 92%
09:00 0°C° 0 mm 1 mps 638 mmHg 90%
10:00 +2°C° 0 mm 1 mps 638 mmHg 88%
11:00 +2°C° 0 mm 1 mps 638 mmHg 85%
12:00 +3°C° 0 mm 1 mps 638 mmHg 82%
13:00 +3°C° 0 mm 1 mps 638 mmHg 79%
14:00 +3°C° 0 mm 1 mps 638 mmHg 79%
15:00 +3°C° 0 mm 1 mps 638 mmHg 80%
16:00 +2°C° 0 mm 0 mps 638 mmHg 80%
17:00 +2°C° 0 mm 1 mps 638 mmHg 82%
18:00 +1°C° 0 mm 1 mps 638 mmHg 85%
19:00 -1°C° 0 mm 1 mps 638 mmHg 87%
20:00 -1°C° 0 mm 1 mps 639 mmHg 87%
21:00 -4°C° 0 mm 2 mps 639 mmHg 86%
22:00 -4°C° 0 mm 2 mps 639 mmHg 86%
23:00 -4°C° 0 mm 2 mps 639 mmHg 85%

28 September, Monday

Time Temperature Precipitation Wind Pressure Humidity
00:00 -4°C° 0 mm 2 mps 639 mmHg 85%
01:00 -4°C° 0 mm 2 mps 639 mmHg 85%
02:00 -4°C° 0 mm 2 mps 639 mmHg 85%
03:00 -4°C° 0 mm 2 mps 639 mmHg 85%
04:00 -4°C° 0 mm 2 mps 639 mmHg 85%
05:00 -4°C° 0 mm 2 mps 639 mmHg 83%
06:00 -3°C° 0 mm 2 mps 640 mmHg 82%
07:00 -2°C° 0 mm 2 mps 640 mmHg 81%
08:00 -1°C° 0.2 mm 2 mps 640 mmHg 85%
09:00 -1°C° 0.2 mm 2 mps 640 mmHg 88%
10:00 +1°C° 0.2 mm 2 mps 640 mmHg 92%
11:00 +1°C° 1 mm 2 mps 640 mmHg 93%
12:00 +1°C° 1 mm 2 mps 640 mmHg 95%
13:00 +1°C° 1 mm 2 mps 640 mmHg 96%
14:00 +1°C° 1.5 mm 2 mps 640 mmHg 97%
15:00 +2°C° 1.5 mm 2 mps 640 mmHg 97%
16:00 +2°C° 1.5 mm 2 mps 640 mmHg 97%
17:00 +2°C° 1 mm 2 mps 640 mmHg 97%
18:00 +2°C° 1 mm 2 mps 641 mmHg 97%
19:00 +3°C° 1 mm 2 mps 641 mmHg 97%
20:00 +3°C° 0.9 mm 2 mps 642 mmHg 97%
21:00 +3°C° 0.9 mm 2 mps 642 mmHg 97%
22:00 +3°C° 0.9 mm 2 mps 642 mmHg 97%
23:00 +3°C° 0.4 mm 2 mps 642 mmHg 97%

29 September, Tuesday

Time Temperature Precipitation Wind Pressure Humidity
00:00 +3°C° 0.4 mm 2 mps 642 mmHg 97%
01:00 +3°C° 0.4 mm 2 mps 642 mmHg 97%
02:00 +3°C° 0.1 mm 2 mps 642 mmHg 96%
03:00 +3°C° 0.1 mm 2 mps 643 mmHg 96%
04:00 +3°C° 0.1 mm 2 mps 643 mmHg 96%
05:00 +4°C° 0.1 mm 1 mps 643 mmHg 96%
06:00 +4°C° 0.1 mm 1 mps 643 mmHg 96%
07:00 +4°C° 0.1 mm 1 mps 643 mmHg 96%
08:00 +5°C° 0 mm 1 mps 644 mmHg 95%
09:00 +6°C° 0 mm 1 mps 644 mmHg 95%
10:00 +7°C° 0 mm 1 mps 644 mmHg 94%
11:00 +8°C° 0 mm 1 mps 644 mmHg 92%
12:00 +8°C° 0 mm 1 mps 645 mmHg 90%
13:00 +9°C° 0 mm 1 mps 645 mmHg 88%
14:00 +9°C° 0 mm 1 mps 645 mmHg 89%
15:00 +9°C° 0 mm 1 mps 645 mmHg 90%
16:00 +9°C° 0 mm 1 mps 645 mmHg 91%
17:00 +8°C° 0 mm 1 mps 645 mmHg 92%
18:00 +7°C° 0 mm 1 mps 645 mmHg 93%
19:00 +6°C° 0 mm 1 mps 645 mmHg 94%
20:00 +6°C° 0 mm 1 mps 645 mmHg 93%
21:00 +6°C° 0 mm 1 mps 645 mmHg 92%
22:00 +6°C° 0 mm 1 mps 645 mmHg 91%
23:00 +5°C° 0 mm 1 mps 644 mmHg 91%
Show more